Stations météo

réclame
Mon MeteoGroup
Culdrose, Grande-Bretagne (3809): Température de l'air & dewpoint: 18.02.2018 21:00:00 - 24.02.2018 21:00:00 (GMT)Culdrose, Grande-Bretagne (3809): Vitesse du vent & gusts: 18.02.2018 21:00:00 - 24.02.2018 21:00:00 (GMT)Culdrose, Grande-Bretagne (3809): Direction du vent: 18.02.2018 21:00:00 - 24.02.2018 21:00:00 (GMT)Culdrose, Grande-Bretagne (3809): reduced air pressure: 18.02.2018 21:00:00 - 24.02.2018 21:00:00 (GMT)Culdrose, Grande-Bretagne (3809): visibility: 18.02.2018 21:00:00 - 24.02.2018 21:00:00 (GMT)Culdrose, Grande-Bretagne (3809): Quantités de précipitations: 18.02.2018 21:00:00 - 24.02.2018 21:00:00 (GMT)
Date & Time tt [°C] td [°C] ff [km/h] ff [knt] fx [km/h] fx [knt] dd ppp [hPa] vv [km] rr [mm]
24.02.2018 21:00:00 5,2 0,3 42 23 65 35 E 1018,7 10 0,0
24.02.2018 20:00:00 4,7 0,5 37 20 57 31 E 1018,4 8 0,0
24.02.2018 19:00:00 4,5 -0,2 41 22 55 30 E 1018,1 9 0,0
24.02.2018 18:00:00 4,0 -0,7 42 23 63 34 E 1017,5 9 0,0
24.02.2018 17:00:00 4,1 -0,4 48 26 65 35 E 1016,9 8 0,0
24.02.2018 16:00:00 4,4 0,6 52 28 67 36 E 1016,9 8 0,0
24.02.2018 15:00:00 4,7 1,3 48 26 63 34 E 1017,1 7 0,0
24.02.2018 14:00:00 4,9 1,4 48 26 61 33 E 1017,3 7 0,0
24.02.2018 13:00:00 4,3 1,0 44 24 61 33 E 1017,7 6 0,0
24.02.2018 12:00:00 5,0 1,7 44 24 61 33 E 1017,5 6 0,0
24.02.2018 11:00:00 5,0 1,8 48 26 59 32 E 1017,3 6 0,0
24.02.2018 10:00:00 4,6 1,8 37 20 50 27 E 1017,3 6 0,0
24.02.2018 09:00:00 4,8 -0,8 34 18 - - E 1017,1 10 0,0
24.02.2018 08:00:00 3,6 -1,1 34 18 46 25 E 1016,9 10 0,0
24.02.2018 07:00:00 4,0 -0,7 29 16 - - E 1016,4 11 0,0
24.02.2018 06:00:00 3,7 -0,6 24 13 - - ESE 1015,8 9 0,0
24.02.2018 05:00:00 3,4 -1,1 28 15 - - E 1015,2 10 0,0
24.02.2018 04:00:00 3,9 -0,7 28 15 - - ESE 1015,0 10 0,0
24.02.2018 03:00:00 4,1 -0,8 28 15 - - ESE 1014,9 11 0,0
24.02.2018 02:00:00 3,9 -1,5 31 17 - - ESE 1015,0 11 0,0
24.02.2018 01:00:00 4,2 -1,6 34 18 52 28 ESE 1015,0 11 0,0
24.02.2018 00:00:00 4,0 -1,2 41 22 55 30 ESE 1015,0 12 0,0
23.02.2018 23:00:00 4,1 -1,0 35 19 61 33 ESE 1015,0 12 0,0
23.02.2018 22:00:00 4,2 -1,3 39 21 59 32 ESE 1014,9 11 0,0
23.02.2018 21:00:00 4,0 -1,2 41 22 63 34 E 1014,9 11 0,0
23.02.2018 20:00:00 3,9 -1,7 44 24 65 35 E 1015,0 10 0,0
23.02.2018 19:00:00 4,0 -1,5 46 25 63 34 E 1015,0 15 0,0
23.02.2018 18:00:00 3,8 -1,6 42 23 65 35 E 1014,9 10 0,0
23.02.2018 17:00:00 4,5 -1,1 44 24 63 34 E 1014,9 10 0,0
23.02.2018 16:00:00 4,9 -0,9 44 24 61 33 E 1015,2 10 0,0
23.02.2018 15:00:00 5,4 -0,7 48 26 65 35 E 1015,5 13 0,0
23.02.2018 14:00:00 5,4 -0,6 34 18 61 33 E 1016,0 10 0,0
23.02.2018 13:00:00 5,6 -0,5 37 20 61 33 E 1016,5 10 0,0
23.02.2018 12:00:00 5,5 -0,6 39 21 57 31 E 1017,0 10 0,0
23.02.2018 11:00:00 5,3 0,7 31 17 54 29 E 1017,5 10 0,0
23.02.2018 10:00:00 5,1 0,3 31 17 50 27 E 1017,7 10 0,0
23.02.2018 09:00:00 4,5 0,4 29 16 46 25 E 1017,8 10 0,0
23.02.2018 08:00:00 3,9 0,1 31 17 - - ESE 1017,7 10 0,0
23.02.2018 07:00:00 4,8 0,5 22 12 - - ESE 1017,5 10 0,0
23.02.2018 06:00:00 5,0 0,4 21 11 - - ESE 1017,7 10 0,0
23.02.2018 05:00:00 4,8 -0,3 22 12 - - ESE 1017,8 18 0,0
23.02.2018 04:00:00 4,8 -0,1 21 11 - - ESE 1018,0 10 0,0
23.02.2018 03:00:00 3,9 -0,4 26 14 46 25 E 1018,3 10 0,0
23.02.2018 02:00:00 4,3 -0,4 29 16 48 26 E 1018,8 10 0,0
23.02.2018 01:00:00 4,1 -0,1 26 14 - - E 1019,1 10 0,0
23.02.2018 00:00:00 3,6 -0,6 26 14 48 26 E 1019,3 10 0,0
22.02.2018 23:00:00 3,8 -0,5 26 14 48 26 E 1019,4 10 0,0
22.02.2018 22:00:00 4,0 -0,9 26 14 - - E 1019,9 10 0,0
22.02.2018 21:00:00 3,8 -0,7 26 14 - - E 1020,2 10 0,0
22.02.2018 20:00:00 3,6 -0,3 21 11 - - E 1020,6 9 0,0
22.02.2018 19:00:00 3,6 -0,2 18 10 - - E 1020,7 10 0,0
22.02.2018 18:00:00 3,5 -0,2 16 9 - - E 1020,6 10 0,0
22.02.2018 17:00:00 5,1 1,3 21 11 - - E 1020,4 10 0,0
22.02.2018 16:00:00 5,6 2,1 24 13 - - E 1020,4 10 0,0
22.02.2018 15:00:00 5,9 3,3 26 14 - - E 1020,6 10 0,0
22.02.2018 14:00:00 7,0 3,5 26 14 - - E 1021,0 10 0,0
22.02.2018 13:00:00 6,4 3,6 26 14 - - E 1021,6 10 0,0
22.02.2018 12:00:00 6,2 3,6 22 12 - - ENE 1022,0 9 0,0
22.02.2018 11:00:00 5,4 3,5 16 9 - - ENE 1022,4 10 0,0
22.02.2018 10:00:00 4,0 2,8 18 10 - - ENE 1022,5 8 0,0
22.02.2018 09:00:00 2,8 1,7 22 12 - - ENE 1022,5 10 0,0
22.02.2018 08:00:00 2,1 1,4 16 9 - - ENE 1022,5 9 0,0
22.02.2018 07:00:00 2,2 1,4 21 11 - - ENE 1022,4 7 0,0
22.02.2018 06:00:00 2,7 1,8 18 10 - - ENE 1022,4 8 0,0
22.02.2018 05:00:00 1,5 0,9 16 9 - - ENE 1022,6 10 0,0
22.02.2018 04:00:00 2,9 1,6 18 10 - - E 1022,7 8 0,0
22.02.2018 03:00:00 1,5 0,7 15 8 - - E 1023,1 8 0,0
22.02.2018 02:00:00 2,6 1,6 13 7 - - NE 1023,7 7 0,0
22.02.2018 01:00:00 1,8 0,8 11 6 - - ENE 1024,1 7 0,0
22.02.2018 00:00:00 1,0 -0,3 11 6 - - NE 1024,6 7 0,0
21.02.2018 23:00:00 0,9 -0,1 13 7 - - ENE 1024,8 7 0,0
21.02.2018 22:00:00 2,3 0,8 11 6 - - ENE 1025,1 9 0,0
21.02.2018 21:00:00 1,3 -0,3 9 5 - - NE 1025,4 9 0,0
21.02.2018 20:00:00 2,3 0,3 8 4 - - NE 1025,5 10 0,0
21.02.2018 19:00:00 2,6 0,3 9 5 - - E 1025,6 8 0,0
21.02.2018 18:00:00 3,9 1,1 13 7 - - E 1025,5 8 0,0
21.02.2018 17:00:00 5,7 1,4 18 10 - - E 1025,4 10 0,0
21.02.2018 16:00:00 6,6 2,3 16 9 - - E 1025,5 10 0,0
21.02.2018 15:00:00 7,1 3,0 21 11 - - E 1025,6 10 0,0
21.02.2018 14:00:00 7,0 3,3 18 10 - - E 1026,0 10 0,0
21.02.2018 13:00:00 8,1 4,1 21 11 - - E 1026,4 10 0,0
21.02.2018 12:00:00 7,7 4,7 21 11 - - E 1026,7 10 0,0
21.02.2018 11:00:00 7,8 4,6 18 10 - - ENE 1026,9 10 0,0
21.02.2018 10:00:00 5,8 3,6 11 6 - - ENE 1027,2 10 0,0
21.02.2018 09:00:00 3,7 2,0 15 8 - - ENE 1027,2 10 0,0
21.02.2018 08:00:00 2,1 1,2 15 8 - - ENE 1027,1 10 0,0
21.02.2018 07:00:00 3,5 2,4 18 10 - - NE 1026,8 10 0,0
21.02.2018 06:00:00 3,8 2,9 18 10 - - NNE 1027,0 10 0,0
21.02.2018 05:00:00 4,1 3,1 22 12 - - NNE 1026,9 10 0,0
21.02.2018 04:00:00 4,2 3,1 21 11 - - N 1027,1 10 0,0
21.02.2018 03:00:00 4,2 3,1 21 11 - - N 1027,4 10 0,0
21.02.2018 02:00:00 4,0 3,0 16 9 - - N 1027,4 10 0,0
21.02.2018 01:00:00 4,6 3,4 18 10 - - N 1027,5 10 0,0
21.02.2018 00:00:00 4,8 3,5 18 10 - - NNE 1027,6 10 0,0
20.02.2018 23:00:00 5,3 3,7 22 12 - - NNE 1027,4 10 0,0
20.02.2018 22:00:00 5,8 3,7 26 14 50 27 NNE 1027,5 10 0,0
20.02.2018 21:00:00 6,1 3,6 34 18 55 30 NNE 1027,3 10 0,0
20.02.2018 20:00:00 6,6 3,7 34 18 57 31 N 1027,4 10 0,0
20.02.2018 19:00:00 6,6 3,7 31 17 50 27 N 1027,1 10 0,0
20.02.2018 18:00:00 6,8 3,9 31 17 61 33 N 1026,8 10 0,0
20.02.2018 17:00:00 7,6 4,2 34 18 57 31 N 1026,4 16 0,0
20.02.2018 16:00:00 8,3 4,2 35 19 63 34 N 1026,3 10 0,0
20.02.2018 15:00:00 8,8 3,9 31 17 61 33 N 1026,0 10 0,0
20.02.2018 14:00:00 8,9 3,6 31 17 61 33 N 1026,6 10 0,0
20.02.2018 13:00:00 8,5 3,6 34 18 59 32 N 1027,1 10 0,0
20.02.2018 12:00:00 8,5 3,8 31 17 54 29 N 1027,0 10 0,0
20.02.2018 11:00:00 8,1 4,3 29 16 54 29 NNE 1026,6 10 0,0
20.02.2018 10:00:00 8,0 5,1 22 12 48 26 NNE 1026,5 10 0,0
20.02.2018 09:00:00 7,8 5,1 18 10 - - N 1026,1 16 0,0
20.02.2018 08:00:00 6,7 4,7 22 12 48 26 N 1025,1 10 0,0
20.02.2018 07:00:00 7,0 4,4 22 12 50 27 N 1024,6 10 0,0
20.02.2018 06:00:00 7,3 5,1 26 14 50 27 N 1024,3 10 0,0
20.02.2018 05:00:00 8,1 6,4 26 14 48 26 N 1023,8 10 0,0
20.02.2018 04:00:00 7,9 6,3 29 16 46 25 N 1023,3 10 0,0
20.02.2018 03:00:00 8,5 7,5 26 14 - - N 1023,3 4,0 0,2
20.02.2018 02:00:00 8,6 7,8 26 14 46 25 N 1022,6 9 0,0
20.02.2018 01:00:00 9,1 8,8 22 12 - - NNW 1022,7 9 0,0
20.02.2018 00:00:00 9,3 9,3 16 9 - - NNW 1022,5 0,5 0,0
19.02.2018 23:00:00 9,3 9,3 18 10 - - NW 1022,1 0,4 0,0
19.02.2018 22:00:00 9,2 8,8 18 10 - - NW 1022,0 3,0 0,0
19.02.2018 21:00:00 9,2 8,5 18 10 - - NW 1022,0 4,0 0,0
19.02.2018 20:00:00 9,2 8,6 18 10 - - NW 1021,8 5 0,0
19.02.2018 19:00:00 9,4 8,6 18 10 - - NW 1021,5 6 0,0
19.02.2018 18:00:00 9,7 8,8 18 10 - - NW 1021,5 10 0,0
19.02.2018 17:00:00 10,2 9,3 18 10 - - NW 1021,3 10 0,0
19.02.2018 16:00:00 10,4 9,6 18 10 - - NW 1021,1 7 0,0
19.02.2018 15:00:00 11,2 9,4 21 11 - - NW 1021,0 10 0,0
19.02.2018 14:00:00 11,3 9,1 18 10 - - NW 1021,1 10 0,0
19.02.2018 13:00:00 11,2 9,1 18 10 - - NW 1021,2 18 0,0
19.02.2018 12:00:00 11,3 9,3 18 10 - - NNW 1021,1 10 0,0
19.02.2018 11:00:00 10,1 8,9 16 9 - - NW 1021,0 10 0,0
19.02.2018 10:00:00 9,2 8,8 13 7 - - NW 1021,1 8 0,0
19.02.2018 09:00:00 8,7 8,6 16 9 - - NNW 1020,9 0,4 0,0
19.02.2018 08:00:00 8,6 8,6 13 7 - - WNW 1020,7 0,5 0,0
19.02.2018 07:00:00 8,8 8,8 21 11 - - NNW 1020,2 0,3 0,0
19.02.2018 06:00:00 9,1 9,1 18 10 - - NNW 1019,8 0,3 0,0
19.02.2018 05:00:00 9,2 9,1 18 10 - - NNW 1019,7 0,5 0,0
19.02.2018 04:00:00 9,2 9,1 21 11 - - NW 1019,6 0,3 0,0
19.02.2018 03:00:00 9,3 9,3 21 11 - - NW 1019,9 0,4 0,0
19.02.2018 02:00:00 9,5 9,4 15 8 - - NW 1020,1 0,8 0,0
19.02.2018 01:00:00 9,6 9,5 15 8 - - WNW 1020,2 2,9 0,0
19.02.2018 00:00:00 9,6 9,6 16 9 - - WNW 1020,4 2,1 0,0
18.02.2018 23:00:00 9,7 9,6 15 8 - - WNW 1020,6 1,7 0,0
18.02.2018 22:00:00 9,8 9,7 13 7 - - WNW 1020,6 11 0,2
18.02.2018 21:00:00 9,7 9,6 13 7 - - WNW 1020,6 1,8 0,0

tt = Température de l'air
td = dewpoint
ff = Vitesse du vent
fx = gusts
dd = Direction du vent
ppp = reduced air pressure
vv = visibility
rr = Quantités de précipitations

stations d'obs. à proximité